(197449) = 2003 YK111

Discovered at Goodricke-Pigott on 2003-12-22 by V. Reddy.

Orbit

Orbit type: Main Belt

Note: WebGL enabled browser required.

epoch2023-09-13.0
epoch JD2460200.5
perihelion date2020-05-31.66908
perihelion JD2459001.16908
argument of perihelion (°)194.99272
ascending node (°)202.34057
inclination (°)16.31709
eccentricity0.1799054
perihelion distance (AU)2.5828471
Tisserand w.r.t. Jupiter3.1
ΔV w.r.t. Earth (km/sec)11.2
semimajor axis (AU)3.1494502
mean anomaly (°)211.49045
mean daily motion (°/day)0.17634040
aphelion distance (AU)3.716
period (years)5.59
P-vector [x]0.79908202
P-vector [y]0.57647593
P-vector [z]0.17071446
Q-vector [x]-0.59166130
Q-vector [y]0.80444447
Q-vector [z]0.05297171
absolute magnitude15.13
phase slope0.15
uncertainty0
referenceMPEC 2023-X132
observations used671
oppositions17
arc length (days)10278
first opposition used1995
last opposition used2023
residual rms (arc-secs)0.71
perturbers coarse indicatorM-v
perturbers precise indicator003Ek
first observation date used1995-04-26.0
last observation date used2023-06-16.0
computer nameMPCLINUX
JD of orbit computation2456966.729117
perihelion JD uncertainty (days)8.2656E-05
argument of perihelion uncertainty (°)2.4864E-05
ascending node uncertainty (°)1.7671E-05
inclination uncertainty (°)9.5789E-06
eccentricity uncertainty 7.9750E-08
perihelion distance uncertainty (AU)2.4649E-07
Minimum Orbit Intersection Distances (in AU)
for orbit epoch: 2460200.5, reference: E2023-XD2
Mercury2.25732
Venus1.85946
Earth1.59153
Mars1.14236
Jupiter1.7303
Saturn6.02757
Uranus14.8857
Neptune26.9972

Observations

677 total observations over interval: 1995 04 26.23881 – 2023 06 16.341949
These data are available for download (format description).

Date (UT) J2000 RA J2000 Dec Magn Location Ref
1995 04 26.23881 14 39 59.43 -08 56 54.8 20.6 V 691 – Steward Observatory, Kitt Peak-Spacewatch MPS 178439
1995 04 26.26039 14 39 58.42 -08 56 46.0   691 – Steward Observatory, Kitt Peak-Spacewatch MPS 178439
1995 04 26.28198 14 39 57.54 -08 56 38.2   691 – Steward Observatory, Kitt Peak-Spacewatch MPS 178439
1997 11 01.28250 00 46 09.61 +05 11 03.7 18.5 V 691 – Steward Observatory, Kitt Peak-Spacewatch MPS 178439
1997 11 01.30413 00 46 09.05 +05 10 50.6 18.6 V 691 – Steward Observatory, Kitt Peak-Spacewatch MPS 178439
1997 11 01.32564 00 46 08.51 +05 10 37.7 18.6 V 691 – Steward Observatory, Kitt Peak-Spacewatch MPS 178439
2002 07 09.29477 20 55 24.52 +06 10 52.4 19.7 R 644 – Palomar Mountain/NEAT MPS 149514
2002 07 09.32552 20 55 23.52 +06 10 54.3 19.9 R 644 – Palomar Mountain/NEAT MPS 149514
2002 07 09.36909 20 55 22.09 +06 10 57.8 19.9 R 644 – Palomar Mountain/NEAT MPS 149514
2002 07 19.29653 20 49 28.85 +06 12 35.6 19.8 R 644 – Palomar Mountain/NEAT MPS 149514
2002 07 19.34764 20 49 26.78 +06 12 32.8 19.6 R 644 – Palomar Mountain/NEAT MPS 149514
2002 08 14.15751 20 31 00.56 +04 39 58.2 19.2 R 644 – Palomar Mountain/NEAT MPS 149514
2002 08 14.17811 20 30 59.68 +04 39 50.3 19.2 R 644 – Palomar Mountain/NEAT MPS 149514
2002 08 14.19891 20 30 58.77 +04 39 42.8 19.1 R 644 – Palomar Mountain/NEAT MPS 149514
2002 08 15.16626 20 30 19.25 +04 33 48.3 19.5 R 644 – Palomar Mountain/NEAT MPS 149514
2002 08 15.17854 20 30 18.72 +04 33 43.6 19.2 R 644 – Palomar Mountain/NEAT MPS 149514
2002 08 15.18912 20 30 18.30 +04 33 40.0 19.5 R 644 – Palomar Mountain/NEAT MPS 149514
2002 08 24.25758 20 24 39.04 +03 32 11.4 19.2 R 644 – Palomar Mountain/NEAT MPS 149514
2002 08 24.28125 20 24 38.23 +03 32 00.7 18.6 R 644 – Palomar Mountain/NEAT MPS 149514
2002 08 24.31551 20 24 37.02 +03 31 46.3 19.5 R 644 – Palomar Mountain/NEAT MPS 149514
2002 08 24.34703 20 24 35.91 +03 31 32.0 19.4 R 644 – Palomar Mountain/NEAT MPS 149514
2002 08 24.36800 20 24 35.19 +03 31 22.9 18.9 R 644 – Palomar Mountain/NEAT MPS 149514
2002 08 24.40030 20 24 34.08 +03 31 08.6 19.4 R 644 – Palomar Mountain/NEAT MPS 149514
2002 08 31.14737 20 21 11.65 +02 39 53.2 19.4 R 644 – Palomar Mountain/NEAT MPS 149514
2002 08 31.19333 20 21 10.37 +02 39 31.6 19.1 R 644 – Palomar Mountain/NEAT MPS 149514
2002 09 20.14041 20 16 43.39 -00 00 19.7 19.0 R 644 – Palomar Mountain/NEAT MPS 149514
2002 09 20.16127 20 16 43.39 -00 00 29.6 19.1 R 644 – Palomar Mountain/NEAT MPS 149514
2002 09 20.18234 20 16 43.38 -00 00 39.5 19.0 R 644 – Palomar Mountain/NEAT MPS 149514
2003 11 01.31626 04 49 14.50 +07 21 59.0 19.0 C 704 – Lincoln Laboratory ETS, New Mexico MPS 291425
2003 11 01.34025 04 49 13.80 +07 21 44.2 19.1 C 704 – Lincoln Laboratory ETS, New Mexico MPS 291425
2003 11 01.36431 04 49 13.21 +07 21 32.7 18.7 C 704 – Lincoln Laboratory ETS, New Mexico MPS 291425
2003 11 20.28141 04 37 34.56 +04 37 27.2 19.0 V 703 – Catalina Sky Survey MPS 178439
2003 11 20.29502 04 37 33.90 +04 37 21.1 18.7 V 703 – Catalina Sky Survey MPS 178439
2003 11 20.30857 04 37 33.29 +04 37 14.7 18.2 V 703 – Catalina Sky Survey MPS 178439
2003 11 20.32210 04 37 32.57 +04 37 07.9 18.9 V 703 – Catalina Sky Survey MPS 178439
2003 12 01.22609 04 28 54.61 +03 22 21.0 18.8 V 703 – Catalina Sky Survey MPS 178439
2003 12 01.24443 04 28 53.56 +03 22 15.3 17.5 V 703 – Catalina Sky Survey MPS 178439
2003 12 01.26279 04 28 53.04 +03 22 12.0 17.6 V 703 – Catalina Sky Survey MPS 178439
2003 12 01.28119 04 28 51.80 +03 22 03.9 16.7 V 703 – Catalina Sky Survey MPS 178439
2003 12 21.19392 04 14 32.55 +02 07 00.2 20.5 R 683 – Goodricke-Pigott Observatory, Tucson MPS 95914
2003 12 21.20735 04 14 32.20 +02 06 58.7 21.1 R 683 – Goodricke-Pigott Observatory, Tucson MPS 95914
2003 12 21.22072 04 14 31.85 +02 06 58.2 20.7 R 683 – Goodricke-Pigott Observatory, Tucson MPS 95914
2003 12 22.19080 04 13 58.46 +02 05 28.7 18.9 R 683 – Goodricke-Pigott Observatory, Tucson MPS 95914
2003 12 22.20421 04 13 58.02 +02 05 29.4 19.7 R 683 – Goodricke-Pigott Observatory, Tucson MPS 95914
2003 12 22.21759 04 13 57.50 +02 05 27.5 19.4 R 683 – Goodricke-Pigott Observatory, Tucson MPS 95914
2003 12 25.21507 04 12 22.17 +02 02 16.8 19.4   704 – Lincoln Laboratory ETS, New Mexico MPS 95914
2003 12 25.22539 04 12 21.81 +02 02 16.8 19.4   704 – Lincoln Laboratory ETS, New Mexico MPS 95914
2003 12 25.23558 04 12 21.47 +02 02 16.0 19.2   704 – Lincoln Laboratory ETS, New Mexico MPS 95914
2003 12 25.24582 04 12 21.17 +02 02 14.8 19.6   704 – Lincoln Laboratory ETS, New Mexico MPS 95914
2003 12 28.17236 04 10 59.43 +02 00 59.5 19.9 R 683 – Goodricke-Pigott Observatory, Tucson MPS 96409
2003 12 28.18575 04 10 59.11 +02 00 59.9 20.9 R 683 – Goodricke-Pigott Observatory, Tucson MPS 96409
2003 12 28.19917 04 10 58.82 +02 01 00.0 20.5 R 683 – Goodricke-Pigott Observatory, Tucson MPS 96409
2006 03 25.35990 14 17 34.46 -11 40 35.6 20.9 V 691 – Steward Observatory, Kitt Peak-Spacewatch MPS 167066
2006 03 25.37718 14 17 33.95 -11 40 29.7 20.8 V 691 – Steward Observatory, Kitt Peak-Spacewatch MPS 167066
2006 03 25.39447 14 17 33.43 -11 40 23.8 21.0 V 691 – Steward Observatory, Kitt Peak-Spacewatch MPS 167066
2008 09 05.19756 23 27 06.10 +11 01 58.4 18.9   704 – Lincoln Laboratory ETS, New Mexico MPS 255830
2008 09 05.21110 23 27 05.52 +11 01 51.7 19.2   704 – Lincoln Laboratory ETS, New Mexico MPS 255830
2008 09 05.22462 23 27 05.06 +11 01 44.6 19.3   704 – Lincoln Laboratory ETS, New Mexico MPS 255830
2008 09 05.23812 23 27 04.46 +11 01 38.7 19.2   704 – Lincoln Laboratory ETS, New Mexico MPS 255830
2008 09 05.25163 23 27 03.96 +11 01 32.4 19.3   704 – Lincoln Laboratory ETS, New Mexico MPS 255830
2008 09 21.36123 23 16 51.42 +08 28 36.1 18.7 V 703 – Catalina Sky Survey MPS 256651
2008 09 21.36773 23 16 51.31 +08 28 30.4 18.8 V 703 – Catalina Sky Survey MPS 256651
2008 09 21.37422 23 16 50.98 +08 28 26.6 18.5 V 703 – Catalina Sky Survey MPS 256651
2008 09 21.38069 23 16 50.84 +08 28 22.8 18.6 V 703 – Catalina Sky Survey MPS 256651
2008 09 30.22435 23 11 45.49 +06 52 17.4 19.0   704 – Lincoln Laboratory ETS, New Mexico MPS 257885
2008 09 30.23672 23 11 45.04 +06 52 09.5 19.4   704 – Lincoln Laboratory ETS, New Mexico MPS 257885
2008 09 30.24909 23 11 44.66 +06 52 01.7 19.1   704 – Lincoln Laboratory ETS, New Mexico MPS 257885
2008 09 30.27369 23 11 43.76 +06 51 45.4 19.2   704 – Lincoln Laboratory ETS, New Mexico MPS 257885
2008 10 06.21182 23 08 54.06 +05 46 36.2 18.5 V 703 – Catalina Sky Survey MPS 259216
2008 10 06.21904 23 08 53.88 +05 46 31.4 18.6 V 703 – Catalina Sky Survey MPS 259216
2008 10 06.22634 23 08 53.66 +05 46 26.6 18.7 V 703 – Catalina Sky Survey MPS 259216
2008 10 06.23442 23 08 53.48 +05 46 21.5 18.4 V 703 – Catalina Sky Survey MPS 259216
2008 10 08.21117 23 08 05.06 +05 24 59.0 18.9 V 703 – Catalina Sky Survey MPS 259216
2008 10 08.21837 23 08 04.92 +05 24 53.8 18.7 V 703 – Catalina Sky Survey MPS 259216
2008 10 08.22545 23 08 04.70 +05 24 50.6 18.9 V 703 – Catalina Sky Survey MPS 259216
2008 10 08.23258 23 08 04.52 +05 24 45.6 18.2 V 703 – Catalina Sky Survey MPS 259216
2008 10 09.19162 23 07 42.76 +05 14 27.3   683 – Goodricke-Pigott Observatory, Tucson MPS 259216
2008 10 09.20502 23 07 42.36 +05 14 17.4 19.8 R 683 – Goodricke-Pigott Observatory, Tucson MPS 259216
2008 10 24.19495 23 04 33.28 +02 46 29.4 19.6   704 – Lincoln Laboratory ETS, New Mexico MPS 261465
2008 10 24.20644 23 04 33.19 +02 46 22.9 19.7   704 – Lincoln Laboratory ETS, New Mexico MPS 261465
2008 10 24.21807 23 04 33.13 +02 46 17.2 20.0   704 – Lincoln Laboratory ETS, New Mexico MPS 261465
2008 10 24.22969 23 04 33.10 +02 46 10.5 19.7   704 – Lincoln Laboratory ETS, New Mexico MPS 261465
2008 10 24.24116 23 04 33.08 +02 46 04.1 19.8   704 – Lincoln Laboratory ETS, New Mexico MPS 261465
2008 10 28.19086 23 04 35.07 +02 12 38.5 19.3 V 703 – Catalina Sky Survey MPS 261465
2008 10 28.19865 23 04 35.07 +02 12 34.3 19.2 V 703 – Catalina Sky Survey MPS 261465
2008 10 28.20652 23 04 35.22 +02 12 30.3 19.9 V 703 – Catalina Sky Survey MPS 261465
2008 10 28.21447 23 04 35.11 +02 12 27.4 19.2 V 703 – Catalina Sky Survey MPS 261465
